Showing default

COSMOS 1879, 18338

Orbit data source: Space-Track

COSMOS 1879, 18338 is a payload satellite owned by UNKS (CIS) in LEO that was launched on Mon, 07 Sep 1987 UTC via a TSIKLON-3 launch vehicle from the Plesetsk Missile And Space Complex (PKMTR). Payload-class satellites include a variety of spacecraft equipped with specific instruments for various scientific and technological missions. These include communications satellites like Starlink; space stations such as the ISS; scientific satellites like the Hubble; Earth observation satellites from companies like Planet Labs, Umbra, and HawkEye 360; GPS; miniature CubeSats for education and research; and military/defense satellites.

Loading next visibility...
Identifier
18338, 1987-074E
Orbit
LEO
Country
Flag of CISCIS
Related business
Manufacturer
NPO PM
Mission
Defense Communications
Bus & Motor
STRELA-3, Unknown motor
Mass
225 kg wet, 225 kg dry
Launch date (UTC)
1987-09-07 (38 years ago)
Launch vehicle
TSIKLON-3
Launch site
Plesetsk Missile And Space Complex (PKMTR)
Object type
Payload
Rocket body
Debris
Shape & HBR
Cyl, 0.8 m
Radar Cross Section
1.257 m², Large (>1 m²)

Expand to show TLE details & history
Last TLE update: 9 hours ago

TLE from 9 hours ago
0 COSMOS 1879
1 18338U 87074E   26061.77321628  .00000005  00000-0 -28856-4 0  9999
2 18338  82.5764 351.5020 0007405  84.8314 333.1785 12.65025165776606
Epoch: 2026-03-02T18:33Z
TLE epoch observation values (Epoch: 2026-03-02T18:33:25.886Z)
Latitude
57.30266°
Longitude
-75.76524°
Altitude
1,406.696 km
Speed
7.165 km/s
True Right ascension
00h 12m 37s
True Declination
57° 09' 33"
Sunlit
Object was in daylight at epoch
Visualization orbit readout
Latitude
Unknown
Longitude
Unknown
Altitude
Unknown
Speed
Unknown
Apparent Right ascension
Unknown
Apparent Declination
Unknown
Sunlit
N/A
Visualization observer readout
Local Sidereal Time
07:10:41
Azimuth
Unknown
Elevation
Unknown
Doppler factor
Unknown
Orbital elements
Apogee altitude
1,405.348 km
Perigee altitude
1,393.829 km
Semi-major axis
7,777.725 km
Eccentricity
0.00074
Inclination
82.5764°
RAAN
351.502°
Arg. of periapsis
84.8314°
True anomaly
333.14018°
Mean anomaly
333.1785°
Eccentric anomaly
333.15934°
Mean motion
3.1642 °/min
Orbital period
113.77 mins
BSTAR
-0.000028856
Loading maneuver chart data...
Computing Atmospheric mass density...
Loading historical data...
Loading historical data...
Loading historical data...
Loading historical data...
Loading historical data...
Loading historical data...
Loading historical data...

Documentation

Showing up to 5 results
|